User: anonymous   Login
Location: Unspecified
(0.0000°N, 0.0000°E)
Time: 07:28:38
(UTC+00:00)
Language:

BREEZE-M R/B - Orbit

View from above orbital plane
View from above orbital plane
View from above satellite
View from above satellite

Ground track
Ground track

The orbit data is extracted from the following two-line orbital elements,

1 39173U 13026B   21292.00256753 -.00000287  00000-0  00000-0 0  9997
2 39173  24.9706  97.1788 7735417 312.6411   4.0322  1.10515487 33431
Epoch (UTC): 19 October 2021 00:03:41
Eccentricity: 0.7735417
inclination: 24.9706°
perigee height: 2571 km
apogee height: 63706 km
right ascension of ascending node: 97.1788°
argument of perigee: 312.6411°
revolutions per day: 1.10515487
mean anomaly at epoch: 4.0322°
orbit number at epoch: 3343

The dashed part of the orbit path shows where the satellite is in the earth's shadow,  

DLR